RH
30 30 29 28 27 26 25 27 32 39 53 62 66 72 84 86 76 76 77 82 83 82 89 81 78 75 74 75 73 67 32 38 41 42 38 32 26 24 23 20 20 20 20
27 28 29 30 30 29 26 25 27 35 44 60 62 56 69 80 79 71 78 78 78 85 84 81 78 77 76 74 72 39 33 40 42 42 41 29 31 26 25 23 20 22 25
26 27 27 28 29 29 30 30 30 31 39 42 49 58 62 73 74 74 74 80 80 81 80 84 82 82 80 78 73 35 34 40 42 44 41 29 25 23 20 22 28 30 25
24 24 23 23 24 26 27 28 30 32 34 40 39 39 57 70 76 72 75 81 84 80 71 90 90 89 85 84 68 36 38 41 44 44 42 36 27 20 17 20 20 22 22
21 21 20 21 21 22 23 24 26 28 30 36 42 40 43 54 62 69 68 71 68 81 78 92 94 93 90 83 48 37 40 43 45 46 41 35 25 20 19 20 19 19 20
21 20 21 22 22 22 22 22 22 26 30 27 39 43 42 45 59 66 61 63 68 80 89 96 99 93 92 79 49 39 42 45 46 45 41 32 24 20 21 22 21 22 20
19 19 18 20 20 22 24 23 24 24 25 33 31 46 46 50 52 56 58 57 71 96 97 96 98 97 91 64 43 42 44 46 47 44 38 29 23 22 22 24 25 27 24
18 19 20 24 26 26 27 28 28 26 26 32 38 40 49 58 65 60 60 68 82 98 98 95 98 92 66 53 44 43 46 48 46 42 34 26 23 24 26 28 31 33 29
18 21 27 28 31 32 28 31 32 32 30 31 52 49 57 67 65 64 74 95 100 100 95 96 96 78 59 47 43 45 48 47 42 36 30 26 25 27 28 30 32 37 50
22 27 32 34 34 33 27 30 36 38 35 55 60 59 71 71 65 74 86 84 100 100 97 96 82 79 49 48 44 47 48 46 40 33 28 27 29 30 31 30 30 33 44
27 31 32 31 31 29 26 38 34 41 42 60 69 70 87 71 70 87 82 86 99 100 99 92 75 56 45 43 45 45 44 41 34 29 28 30 31 31 31 30 29 33 41
36 40 42 44 42 39 36 46 43 46 56 64 71 86 88 83 86 93 91 99 100 98 93 88 55 42 42 53 64 46 44 37 30 29 30 32 33 33 32 32 34 40 44
51 46 54 49 38 46 55 62 62 59 65 70 82 76 85 90 95 94 96 100 99 95 71 62 62 63 70 82 57 41 36 32 30 30 32 31 32 29 32 37 42 47 61
56 56 58 56 41 50 80 71 66 70 73 79 79 84 84 92 94 94 96 93 87 75 69 60 70 74 55 40 41 36 31 30 30 31 30 26 24 31 42 49 61 77 81
71 60 56 59 54 68 86 81 81 85 89 93 87 88 94 89 88 89 79 66 73 59 59 69 84 79 45 39 47 37 31 31 31 27 18 17 23 39 47 68 80 84 86
84 64 66 72 78 76 85 86 86 86 89 91 88 85 81 80 84 65 62 62 59 67 80 71 47 54 78 34 34 31 32 31 24 16 16 18 27 38 53 72 82 88 89
90 78 75 76 81 83 85 80 73 77 78 77 73 73 74 67 60 70 69 78 70 60 64 86 82 39 36 34 32 32 32 22 16 15 14 16 30 59 68 71 83 88 92
86 79 76 72 70 76 80 73 69 68 68 66 60 59 62 76 70 72 70 78 88 88 76 57 59 43 35 31 34 31 19 17 16 13 13 27 43 51 67 87 92 98 92
78 76 71 67 70 71 66 65 60 60 58 59 70 74 61 67 88 91 80 90 97 89 42 39 49 32 34 35 26 18 18 16 13 16 30 47 50 66 93 91 92 86 82
73 76 79 72 66 62 59 59 57 57 66 88 92 92 100 98 94 99 96 59 42 48 89 34 33 36 32 23 22 21 17 20 26 30 39 50 79 95 94 96 98 99 95
68 69 66 65 65 60 60 59 71 88 97 98 100 100 100 100 100 88 59 74 92 38 31 36 36 26 23 25 31 34 56 68 79 63 52 64 78 98 97 96 97 95 93
77 79 76 94 97 98 99 99 99 100 100 100 99 100 95 60 60 96 80 36 31 33 38 31 22 24 25 28 21 26 44 68 62 61 71 85 99 98 98 94 93 97 99
98 100 100 99 99 100 100 100 100 100 100 98 68 55 71 92 54 34 30 28 34 37 22 19 19 18 15 13 17 24 34 39 67 82 99 100 100 69 52 55 66 70 76
98 99 98 98 98 100 100 100 95 80 69 55 73 87 56 36 30 27 30 39 27 19 19 17 14 11 14 21 27 35 50 71 91 91 100 89 62 55 56 65 75 79 83
62 68 65 74 74 76 69 50 49 50 80 81 52 40 31 26 28 38 34 21 20 18 14 12 14 20 24 39 78 93 95 100 96 99 72 54 51 61 75 78 80 81 84
57 52 54 56 52 51 49 49 53 56 56 51 36 28 27 36 40 24 20 20 17 12 12 18 32 54 65 93 96 98 99 100 100 76 61 58 77 84 84 84 83 84 86
Wind_Speed
34 26 26 25 35 38 37 39 35 34 40 40 35 32 34 35 33 31 29 29 28 25 30 28 27 24 19 16 14 15 13 10 8 6 7 7 5 6 6 6 9 11 13
42 39 35 31 29 28 35 37 39 38 36 40 36 34 36 37 35 32 32 30 31 32 29 31 29 26 23 19 16 16 15 12 8 6 6 4 6 4 7 9 8 11 14
39 36 36 35 35 33 30 35 32 26 39 41 40 40 39 38 37 35 34 35 34 33 32 33 31 29 24 20 17 17 15 12 9 6 4 4 4 7 6 8 9 12 13
39 37 34 34 35 35 37 31 35 36 27 40 41 43 44 43 42 40 40 39 38 38 36 35 33 30 25 22 19 18 16 12 9 7 7 7 8 4 4 8 11 13 17
25 24 26 25 21 28 34 32 36 36 36 34 40 44 47 44 44 43 41 42 40 40 36 33 34 31 27 23 21 19 16 12 9 8 8 8 8 9 10 14 11 16 20
12 7 6 12 12 14 19 28 31 29 42 37 38 47 47 47 45 46 43 42 43 39 34 34 35 32 28 24 21 19 15 12 10 9 9 9 9 10 11 15 22 25 27
5 6 10 11 9 9 10 17 25 27 30 40 45 44 45 47 45 45 45 43 44 40 35 35 36 31 26 23 21 19 15 12 10 9 9 9 10 11 13 16 20 25 30
14 9 10 9 9 13 14 16 20 27 27 33 44 42 45 46 45 42 44 44 42 38 33 33 33 29 27 22 21 17 14 11 10 9 9 10 11 13 14 16 18 25 28
12 10 9 10 9 10 14 21 22 25 25 30 38 44 44 41 39 38 40 40 37 35 30 32 32 29 24 22 19 16 13 10 9 9 10 11 12 13 15 17 18 20 21
7 9 8 7 9 14 18 20 22 24 25 30 36 41 40 37 35 36 34 32 34 34 33 33 32 26 24 21 19 15 11 9 9 10 11 13 14 15 16 18 19 20 23
21 9 8 10 12 16 17 19 18 23 26 31 36 36 33 31 32 31 28 30 35 37 35 32 27 25 23 19 13 10 8 8 9 11 13 14 16 17 18 20 22 23 24
21 13 7 9 12 19 18 15 17 25 29 30 32 31 30 30 32 28 28 33 36 34 33 28 24 23 20 14 9 10 8 9 10 12 14 16 18 19 20 22 23 24 25
27 8 9 10 18 19 14 11 21 25 27 28 28 29 29 31 28 27 30 34 35 33 29 26 24 19 16 11 10 9 8 9 10 13 16 17 19 21 22 23 24 26 27
24 23 17 17 19 15 13 16 21 25 27 30 30 29 30 28 28 29 32 32 31 30 26 23 19 15 9 10 8 7 7 9 12 15 17 18 20 21 22 23 24 24 25
23 22 22 13 8 10 13 16 23 28 31 30 27 28 27 26 27 30 32 32 29 26 22 18 13 9 10 7 6 8 9 12 13 15 17 18 19 19 20 19 19 22 25
21 8 6 5 8 13 17 22 25 26 26 26 24 24 25 29 32 34 32 28 24 22 18 13 12 11 6 6 7 8 11 13 15 16 17 18 19 20 20 20 19 19 22
9 7 6 9 14 18 20 20 20 20 20 21 22 26 29 33 35 31 27 24 22 18 15 11 6 5 6 7 9 11 13 14 16 18 20 21 20 18 21 22 20 20 22
4 11 11 14 18 20 20 18 17 18 20 24 28 31 32 30 28 27 25 21 16 12 7 7 6 7 7 9 11 13 13 15 18 19 20 20 21 21 21 19 22 25 28
13 13 14 15 16 16 18 17 18 21 25 28 27 27 28 27 25 24 21 16 11 9 8 4 3 7 8 11 13 14 15 17 17 17 16 18 19 17 18 21 25 29 32
11 11 11 12 13 17 20 21 24 22 23 23 26 24 24 23 21 17 16 14 10 7 3 4 5 7 8 10 13 18 20 19 18 19 21 22 20 19 19 22 27 30 33
10 12 13 15 16 14 13 19 20 22 24 26 27 23 18 16 14 14 14 10 6 6 4 4 5 7 10 12 13 15 16 19 20 23 25 24 22 19 21 22 25 26 24
14 13 17 18 18 20 22 30 31 30 27 23 21 20 17 19 15 8 7 8 4 2 3 5 7 9 10 12 15 14 13 15 22 23 23 20 21 21 21 19 18 19 21
16 19 20 21 23 26 25 27 26 23 21 20 20 18 15 11 10 8 6 3 2 3 5 6 9 11 13 14 15 17 18 20 19 20 19 20 22 23 19 19 18 18 19
21 22 22 23 23 23 22 22 24 23 21 20 17 13 12 12 9 5 3 1 1 3 6 9 11 12 13 15 16 18 19 19 20 22 25 25 21 17 17 15 15 16 19
20 20 22 24 24 24 25 23 21 20 18 16 16 14 11 8 5 3 1 1 4 8 10 12 12 14 15 15 15 17 20 19 20 20 20 18 16 16 16 17 17 19 20
21 21 22 23 24 24 23 22 19 17 16 15 13 11 8 6 4 3 4 7 10 11 13 14 14 15 16 13 16 18 17 17 16 16 17 15 15 17 19 20 21 22 21
Wind_Direction
250 244 243 246 242 240 242 242 240 233 224 217 215 216 212 210 215 220 221 223 224 221 219 220 220 223 225 228 223 218 218 228 242 265 284 283 279 300 309 308 312 306 306
254 254 254 252 251 245 238 239 239 239 224 216 218 224 222 213 215 218 218 226 232 226 227 222 221 222 223 227 227 217 217 226 241 261 289 270 280 271 284 286 293 296 306
252 252 251 250 251 252 247 242 238 238 226 220 217 221 222 222 220 217 220 222 228 235 233 224 221 223 225 230 229 223 221 226 236 251 252 247 248 296 277 272 277 276 282
247 250 252 253 252 255 251 249 249 244 236 231 228 227 219 216 221 218 217 220 226 231 230 223 220 222 223 225 225 223 225 229 243 254 261 264 269 280 274 265 256 272 283
241 243 246 246 254 253 244 245 246 248 245 239 231 226 223 221 222 220 223 224 228 228 231 228 220 219 222 221 221 223 225 232 245 259 269 280 277 276 269 281 269 279 285
229 221 225 237 236 245 247 247 250 249 241 243 241 228 222 221 219 222 227 227 229 225 223 226 217 217 221 219 220 222 226 236 250 266 280 285 285 286 280 285 295 298 303
178 296 263 235 248 264 263 268 261 255 247 237 239 231 227 223 225 225 229 229 224 219 217 222 216 216 217 215 216 220 225 236 251 268 280 287 290 289 286 286 292 296 303
251 266 253 258 251 256 267 266 261 259 253 237 237 234 226 222 223 228 234 227 224 220 216 222 214 210 211 212 212 218 227 239 252 269 281 289 292 293 292 292 297 302 303
300 254 211 234 264 278 275 273 258 257 256 240 229 224 219 220 226 235 231 228 222 216 220 215 208 208 209 207 212 219 230 243 265 277 284 290 291 293 295 299 298 299 300
283 204 244 270 300 292 284 288 254 244 245 229 220 221 215 217 227 232 228 224 218 210 210 203 203 203 201 204 211 219 228 249 270 283 294 299 299 298 299 298 295 294 294
285 286 282 294 304 308 297 278 253 236 230 219 219 221 212 220 229 227 220 213 208 206 201 200 196 197 196 199 206 222 238 259 281 293 298 299 300 301 300 299 299 298 296
282 316 301 307 313 315 302 268 250 224 222 218 219 216 214 223 220 212 209 204 202 199 198 195 188 188 190 198 214 239 259 273 285 294 301 302 301 301 302 302 300 300 303
277 289 297 306 313 320 288 267 225 210 217 213 209 215 214 213 206 206 200 198 197 193 187 190 188 185 202 216 220 245 262 285 300 303 300 300 301 302 303 304 305 306 306
291 286 280 285 282 300 272 231 224 218 212 205 203 204 209 200 198 195 192 189 187 187 182 179 181 187 191 206 226 252 283 298 304 301 300 299 300 302 305 306 307 307 304
324 298 290 281 251 241 239 213 197 187 184 183 189 194 191 190 186 184 181 180 179 173 172 173 185 182 200 218 249 280 300 301 300 299 299 300 300 300 300 301 298 299 301
311 291 199 194 194 200 193 179 173 170 173 176 179 182 181 179 177 174 172 166 161 163 164 160 172 191 233 239 272 289 297 301 304 305 305 303 303 304 307 304 301 299 302
296 212 186 193 179 170 176 164 159 160 164 166 165 167 169 169 167 164 160 155 153 151 152 185 198 188 234 274 290 296 305 309 310 311 309 306 305 301 300 305 309 303 294
150 158 158 153 148 151 155 154 154 154 159 161 160 162 167 157 152 149 142 144 155 155 142 144 208 243 271 283 297 311 311 312 315 313 310 307 303 302 305 313 307 300 300
132 135 137 138 143 147 151 159 154 159 159 153 157 150 150 147 145 144 146 152 157 150 180 176 256 270 290 305 309 311 317 319 318 318 316 317 317 319 318 310 304 305 304
106 133 143 142 146 143 155 158 145 148 147 152 146 148 143 137 144 149 143 129 134 150 206 238 264 294 304 312 322 325 324 325 324 321 324 323 321 318 318 312 312 310 311
119 131 140 146 148 151 157 142 143 140 140 143 137 133 140 143 141 127 116 143 152 184 216 268 296 308 318 321 321 323 323 324 321 318 318 319 322 323 311 308 301 305 314
119 125 134 132 133 135 140 137 139 140 136 133 139 142 133 117 123 144 129 151 163 205 260 307 313 311 313 311 314 306 306 309 311 316 319 327 326 311 311 310 314 312 302
126 116 117 121 125 128 133 133 135 133 135 132 131 132 142 133 126 143 148 161 223 300 311 310 313 315 317 317 315 314 314 317 322 326 325 316 319 319 318 317 316 316 317
126 128 128 128 133 141 141 133 134 140 135 135 140 139 134 141 145 152 159 199 312 313 318 323 323 322 322 324 322 323 329 336 333 335 320 317 317 318 321 322 325 326 326
138 140 135 135 138 145 147 145 138 136 146 149 144 142 142 142 144 144 112 9 338 339 337 334 334 333 334 335 335 334 337 333 320 313 314 324 330 335 337 337 335 334 333
158 156 150 145 143 145 139 140 146 154 150 142 140 139 141 137 116 73 22 354 343 340 339 343 346 340 339 338 334 334 331 319 330 320 326 334 340 342 341 337 337 339 338